Airfield :
LOGIN :

Register | Disclaimer

   EN    FR    IT 

 










Legend :    VFR   Marginal VFR   IFR   Intensive IFR   Very Intensive IFR
Visi :
Ceiling :
>= 8 km
>= 3000ft
5 to 8 km
1000 to 3000 ft
1500m to 5 km
500 to 1000 ft
800 to 1500m
200 to 500 ft
< 800m
< 200 ft
Symbols :   Thunderstorms  Fog  Heavy snow  Heavy precipitations  Wind > 20 kt
SIGMETs :     Misc.  Thunderstorms  Icing  Turbulence  Mountain Waves  Volcanic Ashes






- Airport Elevation : 751 ft
- IATA code : ENC


LFSN - Nancy Essey

CURRENT METAR :
  • 191000Z AUTO 17005KT 150V220 9999 OVC012 15/13 Q1014

EXPIRED METARs :
  • 190930Z AUTO 17005KT 140V200 9999 BKN014 OVC022 15/13 Q1014
  • 190900Z AUTO 15004KT 120V180 9000 BKN008 BKN015 OVC021 14/13 Q1014
  • 190830Z AUTO VRB02KT 9000 BKN008 OVC012 14/13 Q1013
  • 190800Z AUTO 13003KT 090V180 9999 BKN010 OVC014 14/12 Q1013
  • 190730Z AUTO VRB03KT 9999 SCT015 BKN050 OVC068 14/12 Q1013

Expired Forecast.



MET'MAP, your aeronautical weather chart ! - Copyright ORBIFLY December 2007 - Disclaimer

ORBIFLY MET'MAP TEAM :

Programming & Development : Alexandra Zaïnal
Concept & original design : Baudouin d'Aumeries
Assistance for programming : Marc-Olivier Méhu
Technical & hardware support : Manuel Goepfert

Contact : metmap@orbifly.com




SOURCES & CREDITS :

   NOAA